WD9GET Weather Reports


Display with metric or nautical units.
time (UTC)temp
F
wind
direction
speed
MPH
gust
MPH
rain 1hr
in
rain 24hr
in
rain mn
in
humidity
%
barometer
mb
20260504151127 77 196 3.0 8.0 0.00 0.00 0.00 66 1015.3
20260504151027 77 92 2.0 8.0 0.00 0.00 0.00 68 1015.4
20260504150924 77 116 2.0 8.0 0.00 0.00 0.00 68 1015.4
20260504150824 77 108 2.0 7.0 0.00 0.00 0.00 68 1015.4
20260504150721 77 97 2.0 7.0 0.00 0.00 0.00 68 1015.4
20260504150658 77 98 2.0 7.0 0.00 0.00 0.00 66 1015.3
20260504150621 77 95 2.0 7.0 0.00 0.00 0.00 66 1015.3
20260504150521 77 227 2.0 7.0 0.00 0.00 0.00 68 1015.3
20260504150421 77 202 3.0 9.0 0.00 0.00 0.00 68 1015.4
20260504150315 77 77 3.0 9.0 0.00 0.00 0.00 67 1015.4
20260504150217 77 111 3.0 9.0 0.00 0.00 0.00 67 1015.5
20260504150159 77 196 3.0 9.0 0.00 0.00 0.00 67 1015.5
20260504150116 77 214 3.0 9.0 0.00 0.00 0.00 67 1015.5
20260504141319 74 204 2.0 6.0 0.00 0.00 0.00 74 1015.4
20260504141216 74 108 2.0 5.0 0.00 0.00 0.00 74 1015.4
20260504141138 73 93 2.0 5.0 0.00 0.00 0.00 74 1015.4
20260504141116 73 0 2.0 5.0 0.00 0.00 0.00 74 1015.4
20260504141013 73 82 2.0 5.0 0.00 0.00 0.00 74 1015.4
20260504140913 73 76 2.0 4.0 0.00 0.00 0.00 74 1015.4
20260504140810 73 150 2.0 4.0 0.00 0.00 0.00 75 1015.4
20260504140710 73 217 2.0 4.0 0.00 0.00 0.00 74 1015.3
20260504140639 73 88 1.0 4.0 0.00 0.00 0.00 74 1015.3
20260504140609 73 72 1.0 4.0 0.00 0.00 0.00 74 1015.3
20260504140507 73 68 1.0 4.0 0.00 0.00 0.00 75 1015.3
20260504140407 73 84 1.0 4.0 0.00 0.00 0.00 75 1015.3
20260504140301 73 84 1.0 4.0 0.00 0.00 0.00 75 1015.3
20260504140159 73 172 1.0 3.0 0.00 0.00 0.00 75 1015.3
20260504140136 73 258 1.0 3.0 0.00 0.00 0.00 75 1015.3
20260504130710 62 79 2.0 3.0 0.00 0.00 0.00 91 1015.3
20260504130610 62 109 2.0 3.0 0.00 0.00 0.00 92 1015.3
20260504130456 61 104 2.0 3.0 0.00 0.00 0.00 94 1015.3
20260504130356 60 80 2.0 3.0 0.00 0.00 0.00 95 1015.3
20260504130326 60 78 1.0 3.0 0.00 0.00 0.00 97 1015.3
20260504130256 60 86 2.0 3.0 0.00 0.00 0.00 95 1015.3
20260504130200 60 91 1.0 3.0 0.00 0.00 0.00 97 1015.3
20260504120227 54 51 1.0 2.0 0.00 0.00 0.00 99 1015.1
20260504120137 54 53 1.0 2.0 0.00 0.00 0.00 99 1015.2
20260504110710 54 10 1.0 2.0 0.00 0.00 0.00 99 1015.1
20260504110610 54 29 1.0 2.0 0.00 0.00 0.00 99 1015.1
20260504110509 54 12 2.0 2.0 0.00 0.00 0.00 99 1015.1
20260504110408 54 29 1.0 2.0 0.00 0.00 0.00 99 1015.0
20260504110404 54 37 1.0 2.0 0.00 0.00 0.00 99 1015.0
20260504110303 54 58 1.0 2.0 0.00 0.00 0.00 99 1015.0
20260504110204 54 41 1.0 2.0 0.00 0.00 0.00 99 1015.1
20260504110104 54 13 2.0 2.0 0.00 0.00 0.00 99 1015.1
20260504100522 54 12 1.0 2.0 0.00 0.00 0.00 99 1015.3
20260504100423 54 39 1.0 2.0 0.00 0.00 0.00 99 1015.2
20260504100357 54 46 1.0 2.0 0.00 0.00 0.00 99 1015.2
20260504100323 54 54 1.0 2.0 0.00 0.00 0.00 99 1015.2
20260504100222 54 0 1.0 2.0 0.00 0.00 0.00 99 1015.2
20260504100120 54 50 1.0 2.0 0.00 0.00 0.00 99 1015.2
20260504090119 54 3 2.0 2.0 0.00 0.00 0.00 98 1015.5
20260504081945 54 35 2.0 3.0 0.00 0.00 0.00 98 1016.0
20260504081936 54 12 2.0 3.0 0.00 0.00 0.00 98 1016.0
20260504081745 54 50 2.0 3.0 0.00 0.00 0.00 98 1016.0
20260504081645 54 17 2.0 3.0 0.00 0.00 0.00 98 1016.0
20260504081556 54 43 1.0 3.0 0.00 0.00 0.00 98 1016.0
20260504081539 54 63 2.0 3.0 0.00 0.00 0.00 98 1016.0
20260504081439 54 39 2.0 3.0 0.00 0.00 0.00 98 1015.9
20260504081434 54 48 1.0 3.0 0.00 0.00 0.00 98 1016.0
20260504081233 54 13 1.0 3.0 0.00 0.00 0.00 98 1016.0
20260504081133 54 38 1.0 3.0 0.00 0.00 0.00 98 1016.0
20260504081056 54 37 1.0 2.0 0.00 0.00 0.00 98 1016.1
20260504081034 54 32 1.0 3.0 0.00 0.00 0.00 98 1016.1
20260504080940 54 30 1.0 3.0 0.00 0.00 0.00 98 1016.1
20260504080935 54 42 1.0 2.0 0.00 0.00 0.00 98 1016.1
20260504080733 54 42 1.0 3.0 0.00 0.00 0.00 98 1016.1
20260504080633 54 42 2.0 3.0 0.00 0.00 0.00 97 1016.1
20260504080530 54 34 2.0 3.0 0.00 0.00 0.00 97 1016.1
20260504080518 54 31 2.0 3.0 0.00 0.00 0.00 97 1016.2
20260504080430 54 13 2.0 3.0 0.00 0.00 0.00 97 1016.1
20260504080330 54 46 2.0 3.0 0.00 0.00 0.00 97 1016.1
20260504070334 55 45 1.0 3.0 0.00 0.00 0.00 96 1017.0
20260504070235 55 42 1.0 3.0 0.00 0.00 0.00 96 1017.0
20260504070134 55 42 1.0 3.0 0.00 0.00 0.00 96 1017.1
20260504060241 54 75 1.0 2.0 0.00 0.00 0.00 95 1017.4
20260504060141 55 44 1.0 2.0 0.00 0.00 0.00 95 1017.4
20260504050717 55 58 1.0 2.0 0.00 0.00 0.00 93 1017.8
20260504050617 55 52 1.0 2.0 0.00 0.00 0.00 93 1017.8
20260504050517 55 44 1.0 2.0 0.00 0.00 0.00 93 1017.9
20260504050502 55 40 1.0 2.0 0.00 0.00 0.00 93 1017.9
20260504050417 55 46 1.0 2.0 0.00 0.00 0.00 93 1017.9
20260504050317 55 52 1.0 2.0 0.00 0.00 0.00 93 1017.9
20260504050217 55 46 1.0 2.0 0.00 0.00 0.00 93 1017.9
20260504050117 55 299 1.0 2.0 0.00 0.00 0.00 93 1017.9
20260504050016 55 0 1.0 2.0 0.00 0.00 0.00 93 1017.9
20260504050002 55 40 1.0 2.0 0.00 0.00 0.00 93 1017.9
20260504045915 55 48 1.0 2.0 0.00 0.00 0.00 93 1018.0
20260504045815 55 36 1.0 2.0 0.00 0.00 0.00 93 1018.0
20260504045724 55 48 1.0 2.0 0.00 0.00 0.00 92 1018.0
20260504045715 55 42 1.0 2.0 0.00 0.00 0.00 92 1018.0
20260504045613 55 1 1.0 2.0 0.00 0.00 0.00 92 1018.0
20260504045607 55 22 1.0 2.0 0.00 0.00 0.00 92 1018.0
20260504045412 55 44 1.0 2.0 0.00 0.00 0.00 92 1018.0
20260504045312 55 37 1.0 2.0 0.00 0.00 0.00 92 1018.0
20260504045212 55 39 1.0 2.0 0.00 0.00 0.00 92 1018.0
20260504045112 55 42 1.0 2.0 0.00 0.00 0.00 92 1018.0
20260504045004 55 30 1.0 2.0 0.00 0.00 0.00 92 1017.9
20260504044959 55 306 1.0 2.0 0.00 0.00 0.00 92 1017.9
20260504044900 56 42 1.0 2.0 0.00 0.00 0.00 92 1017.9
20260504044800 56 0 1.0 2.0 0.00 0.00 0.00 92 1017.9
20260504044657 56 45 1.0 3.0 0.00 0.00 0.00 92 1018.0
20260504044558 56 49 1.0 3.0 0.00 0.00 0.00 92 1018.0
20260504044456 56 27 1.0 3.0 0.00 0.00 0.00 91 1018.0
20260504044451 56 46 1.0 3.0 0.00 0.00 0.00 91 1018.0
20260504044349 56 48 1.0 3.0 0.00 0.00 0.00 92 1018.0
20260504044247 56 30 1.0 3.0 0.00 0.00 0.00 91 1018.0
20260504044138 56 47 1.0 3.0 0.00 0.00 0.00 91 1018.0
20260504044037 56 41 1.0 3.0 0.00 0.00 0.00 91 1018.0
20260504043954 56 351 1.0 3.0 0.00 0.00 0.00 91 1018.1
20260504043937 56 322 1.0 3.0 0.00 0.00 0.00 91 1018.1
20260504043837 56 0 1.0 3.0 0.00 0.00 0.00 91 1018.1
20260504043735 56 45 1.0 3.0 0.00 0.00 0.00 91 1018.1
20260504043635 56 39 1.0 2.0 0.00 0.00 0.00 91 1018.1
20260504043535 56 70 1.0 2.0 0.00 0.00 0.00 91 1018.2
20260504043454 56 53 1.0 2.0 0.00 0.00 0.00 91 1018.2
20260504043435 56 38 1.0 2.0 0.00 0.00 0.00 91 1018.2
20260504043334 56 43 1.0 2.0 0.00 0.00 0.00 91 1018.1
20260504043234 56 38 1.0 2.0 0.00 0.00 0.00 91 1018.1
20260504043134 56 63 1.0 2.0 0.00 0.00 0.00 91 1018.1
20260504043034 56 0 1.0 2.0 0.00 0.00 0.00 91 1018.1
20260504042955 56 49 1.0 2.0 0.00 0.00 0.00 91 1018.1
20260504042934 56 40 1.0 2.0 0.00 0.00 0.00 91 1018.1
20260504042831 56 40 1.0 2.0 0.00 0.00 0.00 91 1018.1
20260504042731 56 0 1.0 2.0 0.00 0.00 0.00 91 1018.1
20260504042631 56 8 1.0 2.0 0.00 0.00 0.00 90 1018.1
20260504042532 56 50 1.0 2.0 0.00 0.00 0.00 90 1018.1
20260504042454 56 12 1.0 2.0 0.00 0.00 0.00 90 1018.1
20260504042423 56 28 1.0 2.0 0.00 0.00 0.00 90 1018.1
20260504042323 56 38 1.0 2.0 0.00 0.00 0.00 90 1018.1
20260504042223 56 23 1.0 2.0 0.00 0.00 0.00 90 1018.1
20260504042214 56 34 1.0 2.0 0.00 0.00 0.00 90 1018.0
20260504042116 56 10 1.0 2.0 0.00 0.00 0.00 90 1018.0
20260504042059 56 39 1.0 2.0 0.00 0.00 0.00 90 1018.0
20260504041917 56 9 1.0 2.0 0.00 0.00 0.00 90 1018.0
20260504041813 56 97 1.0 2.0 0.00 0.00 0.00 90 1018.0
20260504041713 56 0 1.0 2.0 0.00 0.00 0.00 89 1018.0
20260504041608 56 59 1.0 2.0 0.00 0.00 0.00 89 1018.0
20260504041501 56 43 1.0 2.0 0.00 0.00 0.00 89 1018.0
20260504041455 56 50 1.0 2.0 0.00 0.00 0.00 89 1018.0
20260504041401 56 50 1.0 2.0 0.00 0.00 0.00 89 1018.0
20260504041301 56 0 1.0 2.0 0.00 0.00 0.00 89 1018.0
20260504041158 56 43 1.0 2.0 0.00 0.00 0.00 89 1018.0
20260504041058 57 0 1.0 2.0 0.00 0.00 0.00 89 1017.9
20260504040956 57 51 1.0 2.0 0.00 0.00 0.00 89 1017.9
20260504040951 57 39 1.0 2.0 0.00 0.00 0.00 89 1017.9
20260504040853 57 60 1.0 2.0 0.00 0.00 0.00 89 1017.9
20260504040752 57 0 1.0 2.0 0.00 0.00 0.00 89 1017.8
20260504040650 57 31 1.0 2.0 0.00 0.00 0.00 89 1017.8
20260504040547 57 16 1.0 2.0 0.00 0.00 0.00 88 1017.8
20260504040449 57 113 1.0 2.0 0.00 0.00 0.00 88 1017.8
20260504040444 57 38 1.0 2.0 0.00 0.00 0.00 88 1017.8
20260504040344 57 49 1.0 2.0 0.00 0.00 0.00 88 1017.8
20260504040245 57 57 1.0 2.0 0.00 0.00 0.00 88 1017.8
20260504040145 57 60 1.0 2.0 0.00 0.00 0.00 88 1017.8
20260504040044 57 35 1.0 2.0 0.00 0.00 0.00 88 1017.8
20260504035949 57 36 1.0 2.0 0.00 0.00 0.00 88 1017.9
20260504035942 57 40 1.0 2.0 0.00 0.00 0.00 88 1017.9
20260504035840 57 42 1.0 2.0 0.00 0.00 0.00 88 1017.9
20260504035735 57 50 1.0 2.0 0.00 0.00 0.00 87 1017.9
20260504035635 57 55 1.0 2.0 0.00 0.00 0.00 87 1018.0
20260504035532 57 54 1.0 2.0 0.00 0.00 0.00 87 1018.0
20260504035449 57 46 1.0 2.0 0.00 0.00 0.00 87 1018.0
20260504035432 57 13 1.0 2.0 0.00 0.00 0.00 87 1018.0
20260504035329 57 7 1.0 2.0 0.00 0.00 0.00 87 1018.0
20260504035229 58 46 1.0 2.0 0.00 0.00 0.00 87 1018.0
20260504035210 58 34 1.0 2.0 0.00 0.00 0.00 86 1018.0
20260504035129 58 25 1.0 2.0 0.00 0.00 0.00 87 1018.0
20260504035054 58 22 1.0 2.0 0.00 0.00 0.00 86 1018.0
20260504034926 58 31 1.0 2.0 0.00 0.00 0.00 86 1018.0
20260504034826 58 297 1.0 2.0 0.00 0.00 0.00 86 1018.1
20260504034726 58 41 1.0 2.0 0.00 0.00 0.00 85 1018.1
20260504034626 58 41 1.0 2.0 0.00 0.00 0.00 85 1018.1
20260504034526 58 38 0.0 2.0 0.00 0.00 0.00 85 1018.1
20260504034449 58 22 0.0 2.0 0.00 0.00 0.00 85 1018.1
20260504034426 58 53 0.0 2.0 0.00 0.00 0.00 85 1018.1
20260504034326 58 53 0.0 2.0 0.00 0.00 0.00 85 1018.1
20260504034226 58 39 0.0 2.0 0.00 0.00 0.00 85 1018.1
20260504034127 58 16 0.0 2.0 0.00 0.00 0.00 85 1018.1
20260504034026 58 39 0.0 2.0 0.00 0.00 0.00 85 1018.1
20260504033946 58 22 0.0 2.0 0.00 0.00 0.00 85 1018.1
20260504033926 58 47 0.0 2.0 0.00 0.00 0.00 85 1018.1
20260504033827 58 345 0.0 2.0 0.00 0.00 0.00 85 1018.1
20260504033727 58 357 1.0 2.0 0.00 0.00 0.00 85 1018.1
20260504033709 58 43 1.0 2.0 0.00 0.00 0.00 85 1018.0
20260504033626 58 0 1.0 2.0 0.00 0.00 0.00 85 1018.1
20260504033549 58 79 1.0 2.0 0.00 0.00 0.00 85 1018.1
20260504033426 58 24 1.0 2.0 0.00 0.00 0.00 85 1018.0
20260504033327 59 302 1.0 2.0 0.00 0.00 0.00 84 1018.0
20260504033226 59 2 1.0 2.0 0.00 0.00 0.00 84 1018.0
20260504033126 59 24 1.0 2.0 0.00 0.00 0.00 84 1018.0
20260504033026 59 50 1.0 2.0 0.00 0.00 0.00 84 1018.0
20260504032943 59 51 1.0 2.0 0.00 0.00 0.00 84 1018.0
20260504032934 59 0 0.0 2.0 0.00 0.00 0.00 83 1018.0
20260504032926 59 20 1.0 2.0 0.00 0.00 0.00 84 1018.0
20260504032826 59 37 1.0 2.0 0.00 0.00 0.00 84 1017.9
20260504032808 59 25 1.0 2.0 0.00 0.00 0.00 83 1017.9
20260504032626 59 65 1.0 2.0 0.00 0.00 0.00 83 1017.9
20260504032549 59 288 0.0 2.0 0.00 0.00 0.00 83 1018.0
20260504032426 59 0 0.0 2.0 0.00 0.00 0.00 83 1018.0
20260504032324 59 328 1.0 2.0 0.00 0.00 0.00 83 1018.1
20260504032218 60 45 0.0 2.0 0.00 0.00 0.00 83 1018.1
20260504032118 60 14 0.0 2.0 0.00 0.00 0.00 83 1018.0
20260504032018 60 0 0.0 2.0 0.00 0.00 0.00 83 1018.0
20260504031944 60 350 0.0 2.0 0.00 0.00 0.00 83 1018.0
20260504031918 60 323 0.0 2.0 0.00 0.00 0.00 83 1018.0
20260504031817 60 7 0.0 2.0 0.00 0.00 0.00 83 1018.0
20260504031717 60 60 1.0 2.0 0.00 0.00 0.00 83 1018.0
20260504031618 60 329 1.0 2.0 0.00 0.00 0.00 83 1018.0
20260504031519 60 0 1.0 2.0 0.00 0.00 0.00 82 1018.0
20260504031443 60 44 1.0 2.0 0.00 0.00 0.00 82 1018.0
20260504031417 60 76 1.0 2.0 0.00 0.00 0.00 82 1018.0
20260504031317 60 3 1.0 2.0 0.00 0.00 0.00 83 1018.0
20260504031218 60 0 1.0 2.0 0.00 0.00 0.00 83 1017.9
20260504031118 60 266 1.0 2.0 0.00 0.00 0.00 83 1017.9
20260504031018 60 17 1.0 2.0 0.00 0.00 0.00 82 1017.9
20260504030941 60 54 1.0 2.0 0.00 0.00 0.00 82 1017.9
20260504030918 60 0 1.0 2.0 0.00 0.00 0.00 82 1017.9
20260504030817 60 34 1.0 2.0 0.00 0.00 0.00 82 1017.9
20260504030717 60 282 1.0 2.0 0.00 0.00 0.00 82 1017.9
20260504030617 60 71 1.0 2.0 0.00 0.00 0.00 81 1017.9
20260504030518 60 39 1.0 2.0 0.00 0.00 0.00 81 1017.9
20260504030418 60 0 1.0 2.0 0.00 0.00 0.00 81 1017.9
20260504030314 60 40 1.0 2.0 0.00 0.00 0.00 81 1017.8
20260504030214 60 16 1.0 2.0 0.00 0.00 0.00 81 1017.8
20260504030112 60 39 1.0 2.0 0.00 0.00 0.00 81 1017.8
20260504030012 60 33 1.0 2.0 0.00 0.00 0.00 81 1017.8
20260504025938 60 52 1.0 2.0 0.00 0.00 0.00 81 1017.8
20260504025912 60 320 1.0 2.0 0.00 0.00 0.00 80 1017.8
20260504025812 60 94 1.0 2.0 0.00 0.00 0.00 80 1017.8
20260504025712 60 82 1.0 2.0 0.00 0.00 0.00 80 1017.8
20260504025603 60 65 1.0 2.0 0.00 0.00 0.00 80 1017.9
20260504025503 60 75 1.0 2.0 0.00 0.00 0.00 80 1017.9
20260504025438 60 36 1.0 2.0 0.00 0.00 0.00 80 1017.9
20260504025403 61 38 1.0 3.0 0.00 0.00 0.00 80 1017.9
20260504025304 61 0 1.0 3.0 0.00 0.00 0.00 80 1017.9
20260504025154 61 17 1.0 3.0 0.00 0.00 0.00 80 1017.9
20260504025053 61 89 1.0 3.0 0.00 0.00 0.00 80 1017.9
20260504024951 61 53 1.0 3.0 0.00 0.00 0.00 80 1017.9
20260504024937 61 68 1.0 3.0 0.00 0.00 0.00 80 1017.9
20260504024852 61 6 1.0 3.0 0.00 0.00 0.00 80 1017.9
20260504024751 61 28 1.0 3.0 0.00 0.00 0.00 80 1017.9
20260504024651 61 34 1.0 3.0 0.00 0.00 0.00 80 1017.9
20260504024552 61 9 1.0 3.0 0.00 0.00 0.00 80 1017.9
20260504024448 61 45 1.0 3.0 0.00 0.00 0.00 80 1017.9
20260504024434 61 27 1.0 3.0 0.00 0.00 0.00 80 1017.9
20260504024345 61 54 1.0 2.0 0.00 0.00 0.00 79 1017.9
20260504024245 61 36 1.0 2.0 0.00 0.00 0.00 79 1017.9
20260504024145 61 36 1.0 2.0 0.00 0.00 0.00 79 1017.9
20260504024045 62 30 1.0 2.0 0.00 0.00 0.00 78 1018.0
20260504023945 62 66 1.0 2.0 0.00 0.00 0.00 78 1018.0
20260504023929 62 39 1.0 2.0 0.00 0.00 0.00 78 1018.0
20260504023844 62 0 1.0 2.0 0.00 0.00 0.00 78 1018.0
20260504023744 62 45 1.0 2.0 0.00 0.00 0.00 78 1018.0
20260504023644 62 0 1.0 2.0 0.00 0.00 0.00 78 1018.0
20260504023546 62 303 1.0 2.0 0.00 0.00 0.00 78 1018.0
20260504023444 62 186 1.0 2.0 0.00 0.00 0.00 78 1018.0
20260504023428 62 0 1.0 2.0 0.00 0.00 0.00 78 1018.0
20260504023345 62 34 1.0 2.0 0.00 0.00 0.00 78 1017.9
20260504023245 62 58 1.0 2.0 0.00 0.00 0.00 78 1017.9
20260504023145 62 34 1.0 2.0 0.00 0.00 0.00 78 1017.9
20260504023045 62 53 1.0 2.0 0.00 0.00 0.00 78 1017.9
20260504022945 62 53 1.0 2.0 0.00 0.00 0.00 77 1017.9
20260504022929 62 52 1.0 2.0 0.00 0.00 0.00 77 1017.9
20260504022842 63 49 1.0 2.0 0.00 0.00 0.00 77 1017.9
20260504022742 63 50 1.0 2.0 0.00 0.00 0.00 77 1017.9
20260504022642 63 57 1.0 2.0 0.00 0.00 0.00 77 1017.9
20260504022542 63 15 1.0 2.0 0.00 0.00 0.00 77 1017.9
20260504022442 63 43 1.0 2.0 0.00 0.00 0.00 77 1017.9
20260504022429 63 34 1.0 2.0 0.00 0.00 0.00 77 1017.9
20260504022343 63 40 0.0 2.0 0.00 0.00 0.00 76 1017.9
20260504022243 63 64 0.0 2.0 0.00 0.00 0.00 76 1017.9
20260504022143 63 54 0.0 2.0 0.00 0.00 0.00 76 1017.9
20260504022039 63 0 0.0 2.0 0.00 0.00 0.00 76 1017.9
20260504021939 63 0 0.0 2.0 0.00 0.00 0.00 76 1017.9
20260504021926 63 46 0.0 2.0 0.00 0.00 0.00 76 1017.9
20260504021839 63 52 0.0 2.0 0.00 0.00 0.00 76 1017.9
20260504021739 64 52 0.0 2.0 0.00 0.00 0.00 75 1017.8
20260504021639 64 0 1.0 3.0 0.00 0.00 0.00 75 1017.8
20260504021539 64 37 1.0 3.0 0.00 0.00 0.00 75 1017.8
20260504021439 64 252 1.0 3.0 0.00 0.00 0.00 74 1017.8
20260504021426 64 295 1.0 4.0 0.00 0.00 0.00 74 1017.8
20260504021345 64 350 1.0 4.0 0.00 0.00 0.00 74 1017.7
20260504021240 64 348 1.0 4.0 0.00 0.00 0.00 74 1017.7
20260504021139 64 105 2.0 4.0 0.00 0.00 0.00 74 1017.8
20260504021037 64 100 2.0 4.0 0.00 0.00 0.00 74 1017.8
20260504020932 64 90 2.0 4.0 0.00 0.00 0.00 74 1017.8
20260504020927 64 71 2.0 4.0 0.00 0.00 0.00 74 1017.8
20260504020830 64 80 2.0 4.0 0.00 0.00 0.00 73 1017.8
20260504020730 64 81 2.0 4.0 0.00 0.00 0.00 73 1017.8
20260504020623 64 64 2.0 4.0 0.00 0.00 0.00 73 1017.8
20260504020522 64 53 2.0 4.0 0.00 0.00 0.00 73 1017.8
20260504020423 64 74 2.0 4.0 0.00 0.00 0.00 73 1017.8
20260504020419 64 79 2.0 4.0 0.00 0.00 0.00 73 1017.8
20260504020320 64 95 2.0 4.0 0.00 0.00 0.00 73 1017.8
20260504020220 64 87 2.0 4.0 0.00 0.00 0.00 72 1017.8
20260504020119 64 78 2.0 4.0 0.00 0.00 0.00 72 1017.8
20260504020019 65 58 2.0 4.0 0.00 0.00 0.00 72 1017.8
20260504015921 65 44 2.0 4.0 0.00 0.00 0.00 72 1017.8
20260504015915 65 92 2.0 4.0 0.00 0.00 0.00 72 1017.8
20260504015813 65 73 2.0 4.0 0.00 0.00 0.00 72 1017.8
20260504015712 65 75 2.0 4.0 0.00 0.00 0.00 72 1017.8
20260504015610 65 101 2.0 4.0 0.00 0.00 0.00 71 1017.8
20260504015510 65 76 2.0 4.0 0.00 0.00 0.00 71 1017.8
20260504015421 65 82 2.0 4.0 0.00 0.00 0.00 71 1017.8
20260504015407 65 84 2.0 4.0 0.00 0.00 0.00 71 1017.7
20260504015257 65 66 2.0 4.0 0.00 0.00 0.00 71 1017.7
20260504015159 65 99 2.0 4.0 0.00 0.00 0.00 71 1017.7
20260504015058 65 62 2.0 4.0 0.00 0.00 0.00 71 1017.8
20260504014957 65 93 2.0 4.0 0.00 0.00 0.00 71 1017.8
20260504014921 65 67 2.0 4.0 0.00 0.00 0.00 71 1017.8
20260504014859 65 50 2.0 4.0 0.00 0.00 0.00 71 1017.8
20260504014758 65 64 2.0 3.0 0.00 0.00 0.00 71 1017.8
20260504014652 65 79 2.0 3.0 0.00 0.00 0.00 71 1017.8
20260504014552 65 81 2.0 3.0 0.00 0.00 0.00 70 1017.8
20260504014452 65 88 2.0 4.0 0.00 0.00 0.00 70 1017.8
20260504014421 65 69 2.0 4.0 0.00 0.00 0.00 70 1017.8
20260504014352 65 69 2.0 4.0 0.00 0.00 0.00 71 1017.8
20260504014252 65 82 2.0 4.0 0.00 0.00 0.00 71 1017.8
20260504014152 65 66 2.0 4.0 0.00 0.00 0.00 71 1017.8
20260504014052 65 104 2.0 4.0 0.00 0.00 0.00 71 1017.8
20260504013949 65 40 2.0 4.0 0.00 0.00 0.00 70 1017.8
20260504013921 65 92 2.0 4.0 0.00 0.00 0.00 70 1017.8
20260504013849 65 154 2.0 4.0 0.00 0.00 0.00 71 1017.8
20260504013749 65 100 2.0 4.0 0.00 0.00 0.00 70 1017.9
20260504013649 65 81 2.0 4.0 0.00 0.00 0.00 70 1017.9
20260504013546 65 76 2.0 4.0 0.00 0.00 0.00 70 1017.9
20260504013444 65 92 2.0 3.0 0.00 0.00 0.00 70 1017.9
20260504013421 65 72 2.0 3.0 0.00 0.00 0.00 70 1017.9
20260504013348 66 101 2.0 3.0 0.00 0.00 0.00 70 1017.9
20260504013235 66 94 2.0 3.0 0.00 0.00 0.00 70 1017.9
20260504013134 66 47 2.0 3.0 0.00 0.00 0.00 70 1017.9
20260504013035 66 63 2.0 3.0 0.00 0.00 0.00 70 1017.9
20260504012925 66 72 1.0 3.0 0.00 0.00 0.00 70 1017.9
20260504012918 66 71 1.0 3.0 0.00 0.00 0.00 70 1017.8
20260504012826 66 65 1.0 3.0 0.00 0.00 0.00 70 1017.8
20260504012726 66 75 1.0 3.0 0.00 0.00 0.00 70 1017.8
20260504012623 66 76 1.0 2.0 0.00 0.00 0.00 70 1017.8
20260504012521 66 69 1.0 2.0 0.00 0.00 0.00 70 1017.8
20260504012420 66 65 0.0 2.0 0.00 0.00 0.00 70 1017.8
20260504012415 66 55 0.0 2.0 0.00 0.00 0.00 70 1017.8
20260504012319 66 69 0.0 2.0 0.00 0.00 0.00 70 1017.8
20260504012219 66 53 0.0 2.0 0.00 0.00 0.00 69 1017.8
20260504012120 66 34 1.0 3.0 0.00 0.00 0.00 69 1017.8
20260504012019 66 60 1.0 3.0 0.00 0.00 0.00 69 1017.8
20260504011921 67 191 1.0 3.0 0.00 0.00 0.00 69 1017.8
20260504011915 67 202 1.0 3.0 0.00 0.00 0.00 69 1017.8
20260504011819 67 66 1.0 3.0 0.00 0.00 0.00 69 1017.8
20260504011716 67 95 1.0 3.0 0.00 0.00 0.00 68 1017.7
20260504011639 67 66 1.0 3.0 0.00 0.00 0.00 68 1017.7
20260504011616 67 0 1.0 3.0 0.00 0.00 0.00 68 1017.7
20260504011526 67 154 1.0 3.0 0.00 0.00 0.00 68 1017.7
20260504011520 67 66 1.0 3.0 0.00 0.00 0.00 68 1017.7
20260504011314 67 82 1.0 3.0 0.00 0.00 0.00 68 1017.7
20260504011214 67 76 1.0 3.0 0.00 0.00 0.00 68 1017.7
20260504011114 67 99 1.0 3.0 0.00 0.00 0.00 68 1017.7
20260504011014 67 72 1.0 3.0 0.00 0.00 0.00 68 1017.7
20260504010914 67 59 1.0 2.0 0.00 0.00 0.00 68 1017.8
20260504010808 67 75 1.0 2.0 0.00 0.00 0.00 68 1017.8
20260504010707 67 74 1.0 2.0 0.00 0.00 0.00 67 1017.7
20260504010607 67 52 1.0 2.0 0.00 0.00 0.00 67 1017.7
20260504010508 67 85 1.0 2.0 0.00 0.00 0.00 67 1017.7
20260504010412 68 67 1.0 2.0 0.00 0.00 0.00 67 1017.7
20260504010408 68 71 1.0 2.0 0.00 0.00 0.00 67 1017.7
20260504010308 68 78 1.0 2.0 0.00 0.00 0.00 67 1017.7
20260504010208 68 88 0.0 2.0 0.00 0.00 0.00 66 1017.7
20260504010105 68 59 0.0 2.0 0.00 0.00 0.00 66 1017.8
20260504010002 68 25 0.0 2.0 0.00 0.00 0.00 66 1017.8
20260504005909 68 86 0.0 3.0 0.00 0.00 0.00 66 1017.8
20260504005900 68 57 0.0 3.0 0.00 0.00 0.00 66 1017.8
20260504005758 68 97 0.0 3.0 0.00 0.00 0.00 65 1017.8
20260504005658 68 159 0.0 3.0 0.00 0.00 0.00 65 1017.8
20260504005556 68 77 1.0 3.0 0.00 0.00 0.00 65 1017.8
20260504005455 68 0 1.0 3.0 0.00 0.00 0.00 65 1017.8
20260504005407 69 53 1.0 3.0 0.00 0.00 0.00 64 1017.8
20260504005353 69 64 1.0 3.0 0.00 0.00 0.00 64 1017.8
20260504005252 69 31 1.0 3.0 0.00 0.00 0.00 64 1017.7
20260504005151 69 139 1.0 3.0 0.00 0.00 0.00 64 1017.7
20260504005049 69 0 1.0 3.0 0.00 0.00 0.00 64 1017.7
20260504004949 69 88 1.0 3.0 0.00 0.00 0.00 64 1017.7
20260504004903 69 214 0.0 3.0 0.00 0.00 0.00 64 1017.7
20260504004849 69 89 0.0 3.0 0.00 0.00 0.00 64 1017.7
20260504004741 69 79 0.0 3.0 0.00 0.00 0.00 64 1017.7
20260504004641 69 51 0.0 3.0 0.00 0.00 0.00 63 1017.7
20260504004539 69 62 0.0 3.0 0.00 0.00 0.00 63 1017.7
20260504004437 69 0 0.0 3.0 0.00 0.00 0.00 63 1017.8
20260504004403 69 0 0.0 3.0 0.00 0.00 0.00 63 1017.8
20260504004335 69 182 1.0 3.0 0.00 0.00 0.00 63 1017.8
20260504004235 69 49 0.0 3.0 0.00 0.00 0.00 63 1017.8
20260504004135 69 157 0.0 3.0 0.00 0.00 0.00 63 1017.8
20260504004034 70 0 1.0 3.0 0.00 0.00 0.00 63 1017.8
20260504003934 70 171 1.0 3.0 0.00 0.00 0.00 62 1017.8
20260504003857 70 79 1.0 3.0 0.00 0.00 0.00 62 1017.8
20260504003844 70 100 1.0 4.0 0.00 0.00 0.00 61 1017.8
20260504003832 70 271 1.0 3.0 0.00 0.00 0.00 62 1017.8
20260504003734 70 82 1.0 3.0 0.00 0.00 0.00 62 1017.8
20260504003729 70 166 1.0 3.0 0.00 0.00 0.00 62 1017.8
20260504003525 70 0 1.0 3.0 0.00 0.00 0.00 61 1017.8
20260504003503 70 191 1.0 4.0 0.00 0.00 0.00 61 1017.8
20260504003326 70 0 1.0 4.0 0.00 0.00 0.00 61 1017.8
20260504003226 70 0 1.0 4.0 0.00 0.00 0.00 61 1017.7
20260504003120 70 72 1.0 4.0 0.00 0.00 0.00 61 1017.7
20260504003021 70 290 1.0 4.0 0.00 0.00 0.00 61 1017.7
20260504002917 70 132 1.0 4.0 0.00 0.00 0.00 60 1017.7
20260504002858 70 88 1.0 4.0 0.00 0.00 0.00 60 1017.7
20260504002816 70 0 1.0 4.0 0.00 0.00 0.00 60 1017.7
20260504002714 71 130 1.0 4.0 0.00 0.00 0.00 60 1017.7
20260504002611 71 83 1.0 4.0 0.00 0.00 0.00 60 1017.7
20260504002508 71 178 1.0 4.0 0.00 0.00 0.00 60 1017.6
20260504002405 71 0 1.0 4.0 0.00 0.00 0.00 60 1017.6
20260504002358 71 0 1.0 4.0 0.00 0.00 0.00 60 1017.6
20260504002305 71 23 1.0 4.0 0.00 0.00 0.00 60 1017.6
20260504002202 71 77 1.0 3.0 0.00 0.00 0.00 60 1017.6
20260504002102 71 87 1.0 3.0 0.00 0.00 0.00 60 1017.6
20260504001959 71 33 1.0 3.0 0.00 0.00 0.00 59 1017.6
20260504001900 71 117 1.0 3.0 0.00 0.00 0.00 59 1017.6
20260504001855 71 127 1.0 3.0 0.00 0.00 0.00 59 1017.6
20260504001759 71 64 1.0 5.0 0.00 0.00 0.00 59 1017.6
20260504001658 71 86 2.0 5.0 0.00 0.00 0.00 59 1017.6
20260504001600 71 84 2.0 6.0 0.00 0.00 0.00 59 1017.6
20260504001457 71 94 2.0 6.0 0.00 0.00 0.00 59 1017.6
20260504001356 72 308 2.0 6.0 0.00 0.00 0.00 59 1017.6
20260504001253 72 188 2.0 6.0 0.00 0.00 0.00 59 1017.6
20260504001150 72 0 2.0 6.0 0.00 0.00 0.00 58 1017.6
20260504001044 72 53 2.0 6.0 0.00 0.00 0.00 58 1017.6
20260504000942 72 91 2.0 6.0 0.00 0.00 0.00 58 1017.6
20260504000855 72 87 2.0 6.0 0.00 0.00 0.00 57 1017.6
20260504000841 72 75 2.0 6.0 0.00 0.00 0.00 57 1017.6
20260504000829 73 87 2.0 7.0 0.00 0.00 0.00 56 1017.7
20260504000741 73 71 2.0 6.0 0.00 0.00 0.00 57 1017.6
20260504000717 73 91 2.0 6.0 0.00 0.00 0.00 57 1017.6
20260504000547 73 163 2.0 5.0 0.00 0.00 0.00 57 1017.6
20260504000457 73 274 2.0 7.0 0.00 0.00 0.00 56 1017.7
20260504000329 73 98 2.0 7.0 0.00 0.00 0.00 56 1017.7
20260504000229 73 129 2.0 7.0 0.00 0.00 0.00 56 1017.7
20260504000129 73 98 2.0 7.0 0.00 0.00 0.00 56 1017.7
20260504000110 74 174 2.0 7.0 0.00 0.00 0.00 55 1017.8
20260504000029 74 144 2.0 7.0 0.00 0.00 0.00 55 1017.8
20260503235959 74 188 2.0 7.0 0.00 0.00 0.00 55 1017.8
20260503235830 74 101 2.0 7.0 0.00 0.00 0.00 55 1017.8
20260503235730 74 122 2.0 7.0 0.00 0.00 0.00 55 1017.8
20260503235627 74 94 2.0 7.0 0.00 0.00 0.00 55 1017.8
20260503235612 74 93 2.0 6.0 0.00 0.00 0.00 55 1017.7
20260503235527 74 73 2.0 7.0 0.00 0.00 0.00 55 1017.8
20260503235457 74 74 2.0 6.0 0.00 0.00 0.00 55 1017.7
20260503235326 74 122 2.0 6.0 0.00 0.00 0.00 55 1017.7
20260503235227 74 115 2.0 6.0 0.00 0.00 0.00 55 1017.7
20260503235126 74 112 2.0 6.0 0.00 0.00 0.00 54 1017.7
20260503235112 74 112 2.0 8.0 0.00 0.00 0.00 54 1017.7
20260503235027 74 76 2.0 6.0 0.00 0.00 0.00 54 1017.7
20260503234954 74 129 2.0 6.0 0.00 0.00 0.00 54 1017.7
20260503234821 74 189 2.0 8.0 0.00 0.00 0.00 54 1017.7
20260503234720 74 186 2.0 8.0 0.00 0.00 0.00 54 1017.7
20260503234621 74 145 2.0 8.0 0.00 0.00 0.00 54 1017.7
20260503234521 74 103 2.0 8.0 0.00 0.00 0.00 54 1017.7
20260503234421 74 89 2.0 8.0 0.00 0.00 0.00 54 1017.7
20260503234350 74 90 2.0 8.0 0.00 0.00 0.00 54 1017.7
20260503234321 74 114 2.0 8.0 0.00 0.00 0.00 53 1017.8
20260503234221 74 99 2.0 8.0 0.00 0.00 0.00 53 1017.8
20260503234121 74 96 2.0 8.0 0.00 0.00 0.00 53 1017.8
20260503234110 74 128 2.0 8.0 0.00 0.00 0.00 54 1017.9
20260503234015 74 160 2.0 8.0 0.00 0.00 0.00 53 1017.8
20260503233952 74 111 2.0 8.0 0.00 0.00 0.00 54 1017.9
20260503233812 74 191 2.0 7.0 0.00 0.00 0.00 53 1017.9
20260503233709 74 215 2.0 7.0 0.00 0.00 0.00 53 1017.9
20260503233609 74 171 2.0 7.0 0.00 0.00 0.00 54 1018.0
20260503233506 74 132 2.0 7.0 0.00 0.00 0.00 54 1018.0
20260503233400 74 160 2.0 7.0 0.00 0.00 0.00 54 1018.0
20260503233344 74 88 2.0 7.0 0.00 0.00 0.00 54 1018.0
20260503233257 74 175 2.0 7.0 0.00 0.00 0.00 54 1018.0
20260503233154 74 105 2.0 7.0 0.00 0.00 0.00 53 1018.1
20260503233054 74 84 2.0 7.0 0.00 0.00 0.00 52 1018.1
20260503232953 74 75 2.0 7.0 0.00 0.00 0.00 52 1018.1
20260503232854 74 216 2.0 7.0 0.00 0.00 0.00 53 1018.0
20260503232837 74 131 2.0 7.0 0.00 0.00 0.00 53 1018.0
20260503232754 75 167 2.0 7.0 0.00 0.00 0.00 53 1018.0
20260503232651 75 198 2.0 5.0 0.00 0.00 0.00 53 1018.0
20260503232554 75 81 2.0 8.0 0.00 0.00 0.00 52 1018.0
20260503232548 75 112 2.0 8.0 0.00 0.00 0.00 53 1018.0
20260503232449 75 300 2.0 8.0 0.00 0.00 0.00 52 1018.0
20260503232443 75 77 2.0 8.0 0.00 0.00 0.00 52 1018.0
20260503232245 75 106 2.0 8.0 0.00 0.00 0.00 52 1018.0
20260503232139 75 139 2.0 8.0 0.00 0.00 0.00 52 1018.0
20260503232036 75 54 3.0 8.0 0.00 0.00 0.00 52 1018.1
20260503231935 75 133 3.0 8.0 0.00 0.00 0.00 52 1018.1
20260503231838 75 118 3.0 9.0 0.00 0.00 0.00 52 1018.1
20260503231834 75 129 3.0 9.0 0.00 0.00 0.00 52 1018.1
20260503231734 75 99 3.0 9.0 0.00 0.00 0.00 52 1018.1
20260503231627 75 252 4.0 9.0 0.00 0.00 0.00 52 1018.1
20260503231525 75 110 4.0 9.0 0.00 0.00 0.00 53 1018.1
20260503231428 75 288 4.0 9.0 0.00 0.00 0.00 53 1018.1
20260503231338 75 218 4.0 9.0 0.00 0.00 0.00 53 1018.1
20260503231321 75 302 4.0 9.0 0.00 0.00 0.00 52 1018.1
20260503231221 75 102 4.0 9.0 0.00 0.00 0.00 52 1018.1
20260503231121 75 108 4.0 9.0 0.00 0.00 0.00 52 1018.1
20260503231018 75 73 4.0 9.0 0.00 0.00 0.00 51 1018.1
20260503230918 75 108 4.0 9.0 0.00 0.00 0.00 52 1018.1
20260503230838 75 95 4.0 9.0 0.00 0.00 0.00 52 1018.1
20260503230818 75 113 4.0 9.0 0.00 0.00 0.00 51 1018.1
20260503230715 75 126 4.0 9.0 0.00 0.00 0.00 51 1018.1
20260503230613 75 76 3.0 9.0 0.00 0.00 0.00 52 1018.1
20260503230500 75 123 3.0 9.0 0.00 0.00 0.00 51 1018.1
20260503230400 75 97 3.0 9.0 0.00 0.00 0.00 52 1018.1
20260503230338 75 165 3.0 9.0 0.00 0.00 0.00 52 1018.1
20260503230300 75 159 3.0 9.0 0.00 0.00 0.00 52 1018.1
20260503230200 75 208 3.0 9.0 0.00 0.00 0.00 52 1018.1
20260503230100 75 73 3.0 9.0 0.00 0.00 0.00 52 1018.2
20260503225955 75 102 3.0 9.0 0.00 0.00 0.00 52 1018.2
20260503225848 75 101 3.0 9.0 0.00 0.00 0.00 52 1018.2
20260503225838 75 109 3.0 9.0 0.00 0.00 0.00 52 1018.2
20260503225748 75 105 3.0 9.0 0.00 0.00 0.00 52 1018.3
20260503225648 75 107 3.0 9.0 0.00 0.00 0.00 52 1018.3
20260503225548 75 157 3.0 8.0 0.00 0.00 0.00 51 1018.3
20260503225449 75 260 3.0 8.0 0.00 0.00 0.00 51 1018.3
20260503225349 75 305 3.0 8.0 0.00 0.00 0.00 51 1018.2
20260503225338 75 95 3.0 8.0 0.00 0.00 0.00 51 1018.2
20260503225249 75 185 3.0 8.0 0.00 0.00 0.00 52 1018.3
20260503225148 75 241 3.0 8.0 0.00 0.00 0.00 51 1018.2
20260503225045 75 95 3.0 10.0 0.00 0.00 0.00 51 1018.2
20260503224945 75 138 3.0 10.0 0.00 0.00 0.00 52 1018.2
20260503224840 75 133 4.0 10.0 0.00 0.00 0.00 52 1018.2
20260503224740 75 79 3.0 10.0 0.00 0.00 0.00 52 1018.2
20260503224640 75 89 3.0 10.0 0.00 0.00 0.00 51 1018.2
20260503224540 75 120 3.0 10.0 0.00 0.00 0.00 51 1018.2
20260503224440 75 220 3.0 10.0 0.00 0.00 0.00 52 1018.3
20260503224339 75 37 3.0 10.0 0.00 0.00 0.00 52 1018.3
20260503224334 75 99 3.0 10.0 0.00 0.00 0.00 52 1018.3
20260503224234 76 103 3.0 10.0 0.00 0.00 0.00 51 1018.3
20260503224130 76 165 3.0 10.0 0.00 0.00 0.00 51 1018.4
20260503224030 76 116 3.0 7.0 0.00 0.00 0.00 51 1018.3
20260503223930 76 163 3.0 7.0 0.00 0.00 0.00 51 1018.3
20260503223830 76 112 3.0 7.0 0.00 0.00 0.00 51 1018.4
20260503223730 76 79 3.0 7.0 0.00 0.00 0.00 51 1018.4
20260503223627 76 188 3.0 7.0 0.00 0.00 0.00 51 1018.4
20260503223525 75 78 3.0 7.0 0.00 0.00 0.00 52 1018.4
20260503223425 75 220 3.0 7.0 0.00 0.00 0.00 51 1018.4
20260503223332 75 104 3.0 10.0 0.00 0.00 0.00 51 1018.4
20260503223325 75 94 3.0 10.0 0.00 0.00 0.00 51 1018.4
20260503223225 76 92 3.0 10.0 0.00 0.00 0.00 51 1018.5
20260503223122 76 191 3.0 10.0 0.00 0.00 0.00 50 1018.6
20260503223022 76 115 3.0 10.0 0.00 0.00 0.00 51 1018.6
20260503222923 76 153 3.0 10.0 0.00 0.00 0.00 52 1018.6
20260503222829 76 128 3.0 10.0 0.00 0.00 0.00 52 1018.6
20260503222822 76 86 3.0 10.0 0.00 0.00 0.00 52 1018.6
20260503222719 76 131 3.0 10.0 0.00 0.00 0.00 52 1018.6
20260503222616 76 95 3.0 10.0 0.00 0.00 0.00 51 1018.6
20260503222552 76 124 4.0 10.0 0.00 0.00 0.00 51 1018.6
20260503222507 76 225 3.0 10.0 0.00 0.00 0.00 51 1018.6
20260503222435 76 93 4.0 10.0 0.00 0.00 0.00 51 1018.6
20260503222257 76 92 4.0 9.0 0.00 0.00 0.00 51 1018.6
20260503222158 76 213 4.0 9.0 0.00 0.00 0.00 50 1018.6
20260503222058 76 104 4.0 9.0 0.00 0.00 0.00 51 1018.6
20260503221958 76 81 4.0 9.0 0.00 0.00 0.00 52 1018.5
20260503221858 76 97 4.0 9.0 0.00 0.00 0.00 52 1018.5
20260503221830 76 116 4.0 9.0 0.00 0.00 0.00 52 1018.5
20260503221756 76 59 4.0 9.0 0.00 0.00 0.00 52 1018.5
20260503221656 76 107 4.0 9.0 0.00 0.00 0.00 51 1018.5
20260503221600 76 112 3.0 9.0 0.00 0.00 0.00 51 1018.5
20260503221554 76 97 4.0 9.0 0.00 0.00 0.00 51 1018.5
20260503221456 76 88 4.0 9.0 0.00 0.00 0.00 51 1018.5
20260503221435 76 129 3.0 9.0 0.00 0.00 0.00 51 1018.5
20260503221252 76 79 3.0 9.0 0.00 0.00 0.00 50 1018.5
20260503221152 76 114 3.0 9.0 0.00 0.00 0.00 51 1018.5
20260503221042 76 137 3.0 9.0 0.00 0.00 0.00 50 1018.5
20260503220943 76 187 3.0 9.0 0.00 0.00 0.00 51 1018.6
20260503220840 76 355 3.0 9.0 0.00 0.00 0.00 50 1018.6
20260503220830 76 185 3.0 9.0 0.00 0.00 0.00 50 1018.6
20260503220741 76 165 3.0 9.0 0.00 0.00 0.00 50 1018.6
20260503220639 76 153 3.0 9.0 0.00 0.00 0.00 51 1018.5
20260503220537 76 90 3.0 9.0 0.00 0.00 0.00 51 1018.5
20260503220437 76 82 3.0 9.0 0.00 0.00 0.00 50 1018.5
20260503220342 76 97 3.0 9.0 0.00 0.00 0.00 50 1018.5
20260503220330 76 112 3.0 9.0 0.00 0.00 0.00 50 1018.5
20260503220237 76 142 3.0 8.0 0.00 0.00 0.00 50 1018.5
20260503220137 76 297 3.0 8.0 0.00 0.00 0.00 50 1018.5
20260503220037 76 125 3.0 8.0 0.00 0.00 0.00 50 1018.6
20260503215934 76 50 3.0 8.0 0.00 0.00 0.00 50 1018.6
20260503215831 76 95 3.0 8.0 0.00 0.00 0.00 50 1018.6
20260503215731 76 114 3.0 8.0 0.00 0.00 0.00 50 1018.6
20260503215631 76 88 3.0 8.0 0.00 0.00 0.00 49 1018.6
20260503215531 76 190 3.0 8.0 0.00 0.00 0.00 49 1018.6
20260503215426 77 97 2.0 8.0 0.00 0.00 0.00 50 1018.6
20260503215330 77 114 3.0 8.0 0.00 0.00 0.00 50 1018.6
20260503215326 77 101 3.0 8.0 0.00 0.00 0.00 50 1018.6
20260503215219 77 93 3.0 8.0 0.00 0.00 0.00 50 1018.6
20260503215119 77 74 2.0 8.0 0.00 0.00 0.00 49 1018.6
20260503215019 77 103 2.0 8.0 0.00 0.00 0.00 49 1018.7
20260503214919 77 66 2.0 8.0 0.00 0.00 0.00 50 1018.7
20260503214827 77 95 2.0 8.0 0.00 0.00 0.00 50 1018.7
20260503214820 77 131 2.0 8.0 0.00 0.00 0.00 49 1018.7
20260503214720 77 170 2.0 8.0 0.00 0.00 0.00 49 1018.8
20260503214619 77 186 2.0 8.0 0.00 0.00 0.00 49 1018.8
20260503214520 77 154 2.0 8.0 0.00 0.00 0.00 49 1018.8
20260503214413 77 98 2.0 8.0 0.00 0.00 0.00 49 1018.8
20260503214324 77 89 2.0 8.0 0.00 0.00 0.00 49 1018.8
20260503214310 77 37 2.0 8.0 0.00 0.00 0.00 49 1018.8
20260503214210 77 153 3.0 8.0 0.00 0.00 0.00 49 1018.8
20260503214105 77 181 3.0 9.0 0.00 0.00 0.00 51 1018.8
20260503214005 77 183 3.0 9.0 0.00 0.00 0.00 49 1018.8
20260503213901 77 284 3.0 9.0 0.00 0.00 0.00 49 1018.8
20260503213823 77 216 3.0 9.0 0.00 0.00 0.00 49 1018.8
20260503213801 77 166 3.0 9.0 0.00 0.00 0.00 49 1018.8
20260503213658 77 91 4.0 9.0 0.00 0.00 0.00 49 1018.8
20260503213558 77 187 3.0 9.0 0.00 0.00 0.00 49 1018.8
20260503213459 77 179 3.0 9.0 0.00 0.00 0.00 48 1018.8
20260503213359 77 130 3.0 9.0 0.00 0.00 0.00 49 1018.8
20260503213321 77 98 3.0 9.0 0.00 0.00 0.00 49 1018.8
20260503213259 77 112 3.0 9.0 0.00 0.00 0.00 49 1018.8
20260503213159 77 234 3.0 9.0 0.00 0.00 0.00 49 1018.8
20260503213058 77 166 3.0 9.0 0.00 0.00 0.00 49 1018.8
20260503212958 77 134 3.0 8.0 0.00 0.00 0.00 48 1018.8
20260503212858 77 149 3.0 8.0 0.00 0.00 0.00 48 1018.8
20260503212822 77 108 3.0 8.0 0.00 0.00 0.00 49 1018.8
20260503212755 77 81 3.0 8.0 0.00 0.00 0.00 49 1018.8
20260503212655 77 118 3.0 8.0 0.00 0.00 0.00 50 1018.9
20260503212556 77 188 3.0 8.0 0.00 0.00 0.00 50 1018.9
20260503212453 77 244 3.0 8.0 0.00 0.00 0.00 48 1018.9
20260503212350 77 128 3.0 8.0 0.00 0.00 0.00 49 1019.0
20260503212322 77 194 3.0 8.0 0.00 0.00 0.00 50 1019.0
20260503212250 77 179 3.0 8.0 0.00 0.00 0.00 50 1019.0
20260503212149 77 122 3.0 8.0 0.00 0.00 0.00 50 1019.0
20260503212049 77 239 3.0 8.0 0.00 0.00 0.00 49 1019.0
20260503211949 77 163 3.0 8.0 0.00 0.00 0.00 49 1019.1
20260503211847 77 131 3.0 8.0 0.00 0.00 0.00 49 1019.1
20260503211821 77 186 3.0 8.0 0.00 0.00 0.00 49 1019.1
20260503211741 77 169 3.0 8.0 0.00 0.00 0.00 49 1019.1
20260503211635 77 161 3.0 8.0 0.00 0.00 0.00 49 1019.1
20260503211532 77 113 3.0 8.0 0.00 0.00 0.00 49 1019.0
20260503211429 77 222 3.0 8.0 0.00 0.00 0.00 50 1019.1
20260503211329 77 178 3.0 8.0 0.00 0.00 0.00 50 1019.1
20260503211321 77 189 3.0 8.0 0.00 0.00 0.00 50 1019.1
20260503211226 77 95 3.0 8.0 0.00 0.00 0.00 50 1019.1
20260503211126 77 102 3.0 8.0 0.00 0.00 0.00 49 1019.1
20260503211022 77 67 3.0 8.0 0.00 0.00 0.00 49 1019.1
20260503210923 77 99 3.0 8.0 0.00 0.00 0.00 50 1019.2
20260503210823 77 120 3.0 8.0 0.00 0.00 0.00 50 1019.2
20260503210723 77 47 3.0 8.0 0.00 0.00 0.00 50 1019.2
20260503210620 77 310 3.0 10.0 0.00 0.00 0.00 50 1019.2
20260503210517 77 135 3.0 10.0 0.00 0.00 0.00 50 1019.2
20260503210417 77 99 3.0 10.0 0.00 0.00 0.00 49 1019.2
20260503210322 77 98 3.0 10.0 0.00 0.00 0.00 49 1019.2
20260503210317 77 113 3.0 10.0 0.00 0.00 0.00 49 1019.2
20260503210217 77 91 3.0 10.0 0.00 0.00 0.00 50 1019.2
20260503210117 77 174 3.0 10.0 0.00 0.00 0.00 49 1019.1
20260503210022 77 146 3.0 10.0 0.00 0.00 0.00 50 1019.1
20260503205916 77 63 3.0 10.0 0.00 0.00 0.00 50 1019.2
20260503205819 77 114 3.0 10.0 0.00 0.00 0.00 50 1019.2
20260503205814 77 74 3.0 10.0 0.00 0.00 0.00 50 1019.2
20260503205710 77 151 3.0 10.0 0.00 0.00 0.00 50 1019.2
20260503205608 77 134 3.0 10.0 0.00 0.00 0.00 50 1019.2
20260503205508 77 243 3.0 8.0 0.00 0.00 0.00 50 1019.2
20260503205405 77 95 3.0 8.0 0.00 0.00 0.00 50 1019.3
20260503205319 77 204 3.0 8.0 0.00 0.00 0.00 49 1019.2
20260503205305 77 189 3.0 8.0 0.00 0.00 0.00 49 1019.2
20260503205205 77 94 3.0 8.0 0.00 0.00 0.00 50 1019.3
20260503205059 77 155 3.0 9.0 0.00 0.00 0.00 50 1019.3
20260503204959 77 116 3.0 9.0 0.00 0.00 0.00 50 1019.3
20260503204900 77 150 3.0 9.0 0.00 0.00 0.00 50 1019.3
20260503204819 77 76 3.0 9.0 0.00 0.00 0.00 50 1019.3
20260503204759 77 79 3.0 9.0 0.00 0.00 0.00 50 1019.3
20260503204659 77 95 3.0 9.0 0.00 0.00 0.00 51 1019.3
20260503204559 77 74 3.0 9.0 0.00 0.00 0.00 51 1019.3
20260503204459 78 95 3.0 9.0 0.00 0.00 0.00 48 1019.2
20260503204356 78 161 3.0 9.0 0.00 0.00 0.00 48 1019.2
20260503204319 78 136 3.0 9.0 0.00 0.00 0.00 48 1019.2
20260503204256 78 112 3.0 9.0 0.00 0.00 0.00 48 1019.2
20260503204156 78 132 3.0 8.0 0.00 0.00 0.00 48 1019.2
20260503204056 78 170 3.0 8.0 0.00 0.00 0.00 49 1019.3
20260503204038 78 167 3.0 7.0 0.00 0.00 0.00 49 1019.3
20260503203957 78 174 3.0 8.0 0.00 0.00 0.00 49 1019.3
20260503203921 78 113 3.0 7.0 0.00 0.00 0.00 49 1019.3
20260503203757 78 122 3.0 7.0 0.00 0.00 0.00 49 1019.3
20260503203657 78 134 3.0 8.0 0.00 0.00 0.00 49 1019.3
20260503203557 78 153 3.0 8.0 0.00 0.00 0.00 49 1019.4
20260503203456 78 191 3.0 8.0 0.00 0.00 0.00 51 1019.4
20260503203356 78 152 3.0 8.0 0.00 0.00 0.00 51 1019.4
20260503203314 78 115 3.0 8.0 0.00 0.00 0.00 50 1019.4
20260503203256 78 31 3.0 8.0 0.00 0.00 0.00 50 1019.4
20260503203156 78 90 3.0 8.0 0.00 0.00 0.00 50 1019.4
20260503203056 78 97 3.0 8.0 0.00 0.00 0.00 50 1019.5
20260503202856 78 154 3.0 8.0 0.00 0.00 0.00 49 1019.5
20260503202813 78 100 3.0 8.0 0.00 0.00 0.00 49 1019.6
20260503202756 78 99 3.0 8.0 0.00 0.00 0.00 49 1019.6
20260503202656 78 183 2.0 7.0 0.00 0.00 0.00 50 1019.6
20260503202556 78 97 3.0 7.0 0.00 0.00 0.00 51 1019.6
20260503202457 78 222 3.0 9.0 0.00 0.00 0.00 49 1019.7
20260503202357 78 82 3.0 9.0 0.00 0.00 0.00 49 1019.7
20260503202315 78 131 3.0 9.0 0.00 0.00 0.00 49 1019.7
20260503202256 78 77 3.0 9.0 0.00 0.00 0.00 49 1019.7
20260503202157 78 69 3.0 9.0 0.00 0.00 0.00 49 1019.7
20260503202056 78 115 3.0 9.0 0.00 0.00 0.00 48 1019.7
20260503201954 78 153 3.0 9.0 0.00 0.00 0.00 48 1019.7
20260503201854 78 139 3.0 9.0 0.00 0.00 0.00 48 1019.7
20260503201810 78 83 3.0 9.0 0.00 0.00 0.00 49 1019.7
20260503201751 78 185 3.0 9.0 0.00 0.00 0.00 49 1019.7
20260503201651 78 88 3.0 9.0 0.00 0.00 0.00 49 1019.7
20260503201551 78 108 3.0 9.0 0.00 0.00 0.00 49 1019.7
20260503201451 78 89 3.0 8.0 0.00 0.00 0.00 49 1019.8
20260503201350 78 113 3.0 8.0 0.00 0.00 0.00 49 1019.8
20260503201310 77 76 2.0 7.0 0.00 0.00 0.00 49 1019.8
20260503201248 77 106 2.0 7.0 0.00 0.00 0.00 49 1019.8
20260503201148 77 162 3.0 8.0 0.00 0.00 0.00 49 1019.8
20260503201048 77 174 3.0 8.0 0.00 0.00 0.00 48 1019.8
20260503200944 77 104 3.0 8.0 0.00 0.00 0.00 49 1019.8
20260503200844 77 148 3.0 8.0 0.00 0.00 0.00 49 1019.9
20260503200810 77 131 3.0 8.0 0.00 0.00 0.00 49 1019.9
20260503200744 77 200 3.0 8.0 0.00 0.00 0.00 49 1019.9
20260503200644 77 188 3.0 8.0 0.00 0.00 0.00 49 1019.9
20260503200542 77 46 4.0 9.0 0.00 0.00 0.00 49 1019.9
20260503200439 77 64 4.0 9.0 0.00 0.00 0.00 49 1019.9
20260503200339 78 63 4.0 9.0 0.00 0.00 0.00 49 1019.9
20260503200311 78 75 4.0 9.0 0.00 0.00 0.00 50 1019.9
20260503200239 78 97 4.0 9.0 0.00 0.00 0.00 50 1019.9
20260503200139 78 52 4.0 9.0 0.00 0.00 0.00 50 1019.9
20260503200039 78 139 3.0 9.0 0.00 0.00 0.00 51 1020.0
20260503195939 78 94 3.0 9.0 0.00 0.00 0.00 51 1020.0
20260503195835 78 123 3.0 9.0 0.00 0.00 0.00 51 1020.0
20260503195801 78 85 3.0 9.0 0.00 0.00 0.00 51 1020.0
20260503195735 78 99 3.0 9.0 0.00 0.00 0.00 51 1020.0
20260503195636 78 100 3.0 9.0 0.00 0.00 0.00 50 1020.0
20260503195536 78 129 3.0 6.0 0.00 0.00 0.00 51 1020.0
20260503195432 78 112 3.0 7.0 0.00 0.00 0.00 48 1019.9
20260503195327 78 339 3.0 7.0 0.00 0.00 0.00 48 1020.0
20260503195304 78 134 3.0 7.0 0.00 0.00 0.00 48 1020.0
20260503195227 78 114 3.0 7.0 0.00 0.00 0.00 48 1020.0
20260503195127 78 156 3.0 7.0 0.00 0.00 0.00 50 1020.1
20260503195027 78 187 3.0 7.0 0.00 0.00 0.00 50 1020.1
20260503194927 78 178 3.0 8.0 0.00 0.00 0.00 49 1020.0
20260503194827 78 61 3.0 9.0 0.00 0.00 0.00 49 1020.0
20260503194802 78 114 3.0 10.0 0.00 0.00 0.00 50 1020.1
20260503194727 78 96 4.0 10.0 0.00 0.00 0.00 50 1020.1
20260503194627 77 335 4.0 10.0 0.00 0.00 0.00 49 1020.1
20260503194527 77 94 4.0 10.0 0.00 0.00 0.00 50 1020.1
20260503194427 77 92 4.0 10.0 0.00 0.00 0.00 50 1020.1
20260503194327 78 87 4.0 10.0 0.00 0.00 0.00 48 1020.1
20260503194301 78 79 4.0 10.0 0.00 0.00 0.00 48 1020.1
20260503194225 78 78 4.0 10.0 0.00 0.00 0.00 49 1020.1
20260503194124 78 189 4.0 10.0 0.00 0.00 0.00 48 1020.1
20260503194025 78 94 4.0 10.0 0.00 0.00 0.00 48 1020.1
20260503193925 78 97 4.0 10.0 0.00 0.00 0.00 48 1020.1
20260503193821 79 120 3.0 10.0 0.00 0.00 0.00 49 1020.2
20260503193759 79 121 3.0 10.0 0.00 0.00 0.00 49 1020.2
20260503193721 79 141 3.0 10.0 0.00 0.00 0.00 50 1020.1
20260503193622 78 97 3.0 9.0 0.00 0.00 0.00 51 1020.2
20260503193522 78 68 3.0 9.0 0.00 0.00 0.00 51 1020.2
20260503193422 78 305 3.0 9.0 0.00 0.00 0.00 50 1020.2
20260503193318 78 87 3.0 9.0 0.00 0.00 0.00 49 1020.2
20260503193258 78 87 3.0 9.0 0.00 0.00 0.00 49 1020.2
20260503193218 78 109 3.0 9.0 0.00 0.00 0.00 49 1020.2
20260503193118 78 165 3.0 9.0 0.00 0.00 0.00 48 1020.2
20260503193027 78 182 3.0 9.0 0.00 0.00 0.00 51 1020.3
20260503193018 78 122 3.0 9.0 0.00 0.00 0.00 49 1020.2
20260503192918 78 160 3.0 9.0 0.00 0.00 0.00 50 1020.3
20260503192905 78 146 3.0 9.0 0.00 0.00 0.00 51 1020.3
20260503192718 78 0 3.0 9.0 0.00 0.00 0.00 50 1020.3
20260503192618 78 158 3.0 9.0 0.00 0.00 0.00 49 1020.3
20260503192518 78 169 3.0 9.0 0.00 0.00 0.00 49 1020.4
20260503192415 78 119 3.0 7.0 0.00 0.00 0.00 49 1020.4
20260503192316 78 70 3.0 7.0 0.00 0.00 0.00 47 1020.3
20260503192259 78 80 3.0 7.0 0.00 0.00 0.00 47 1020.3
20260503192216 78 88 3.0 7.0 0.00 0.00 0.00 49 1020.4
20260503192113 78 103 3.0 7.0 0.00 0.00 0.00 48 1020.4
20260503192012 78 132 3.0 7.0 0.00 0.00 0.00 48 1020.5
20260503191912 78 0 3.0 7.0 0.00 0.00 0.00 48 1020.5
20260503191812 78 20 3.0 7.0 0.00 0.00 0.00 48 1020.5
20260503191759 78 168 3.0 7.0 0.00 0.00 0.00 48 1020.5
20260503191713 78 131 3.0 7.0 0.00 0.00 0.00 50 1020.6
20260503191613 78 109 3.0 7.0 0.00 0.00 0.00 50 1020.5
20260503191512 78 92 3.0 7.0 0.00 0.00 0.00 50 1020.5
20260503191409 78 123 3.0 6.0 0.00 0.00 0.00 49 1020.5
20260503191305 78 57 3.0 6.0 0.00 0.00 0.00 49 1020.5
20260503191300 78 67 3.0 6.0 0.00 0.00 0.00 49 1020.5
20260503191204 78 54 2.0 7.0 0.00 0.00 0.00 48 1020.6
20260503191103 78 322 3.0 7.0 0.00 0.00 0.00 48 1020.6
20260503191003 78 96 3.0 7.0 0.00 0.00 0.00 50 1020.6
20260503190903 78 186 3.0 7.0 0.00 0.00 0.00 49 1020.6
20260503190805 78 182 3.0 7.0 0.00 0.00 0.00 49 1020.6
20260503190759 78 139 3.0 7.0 0.00 0.00 0.00 49 1020.6
20260503190704 78 216 2.0 7.0 0.00 0.00 0.00 49 1020.6
20260503190604 78 203 2.0 7.0 0.00 0.00 0.00 48 1020.6
20260503190501 78 86 3.0 7.0 0.00 0.00 0.00 48 1020.7
20260503190400 79 89 3.0 7.0 0.00 0.00 0.00 47 1020.7
20260503190301 79 200 3.0 7.0 0.00 0.00 0.00 47 1020.7
20260503190201 79 99 3.0 7.0 0.00 0.00 0.00 48 1020.7
20260503185958 79 133 3.0 6.0 0.00 0.00 0.00 44 1020.7
20260503185855 79 194 3.0 6.0 0.00 0.00 0.00 44 1020.7
20260503185759 79 120 3.0 6.0 0.00 0.00 0.00 43 1020.7
20260503185755 79 104 3.0 6.0 0.00 0.00 0.00 43 1020.7
20260503185652 79 36 3.0 6.0 0.00 0.00 0.00 43 1020.7
20260503185552 79 41 3.0 6.0 0.00 0.00 0.00 43 1020.7
20260503185446 79 53 3.0 6.0 0.00 0.00 0.00 43 1020.7
20260503185348 79 7 2.0 6.0 0.00 0.00 0.00 42 1020.8
20260503185257 79 13 2.0 6.0 0.00 0.00 0.00 46 1020.8
20260503185246 79 47 2.0 6.0 0.00 0.00 0.00 46 1020.8
20260503185143 79 23 2.0 6.0 0.00 0.00 0.00 46 1020.8
20260503185042 79 108 2.0 6.0 0.00 0.00 0.00 46 1020.8
20260503184940 79 111 2.0 6.0 0.00 0.00 0.00 45 1020.8
20260503184840 79 26 2.0 5.0 0.00 0.00 0.00 45 1020.8
20260503184753 79 104 2.0 5.0 0.00 0.00 0.00 45 1020.8
20260503184740 79 47 2.0 5.0 0.00 0.00 0.00 45 1020.8
20260503184640 79 133 2.0 5.0 0.00 0.00 0.00 44 1020.8
20260503184540 79 45 2.0 5.0 0.00 0.00 0.00 46 1020.8
20260503184440 79 31 2.0 5.0 0.00 0.00 0.00 44 1020.8
20260503184340 79 25 2.0 5.0 0.00 0.00 0.00 44 1020.8
20260503184251 79 27 2.0 7.0 0.00 0.00 0.00 43 1020.9
20260503184240 79 26 2.0 7.0 0.00 0.00 0.00 43 1020.9
20260503184139 79 26 3.0 8.0 0.00 0.00 0.00 42 1020.9
20260503184041 79 51 3.0 8.0 0.00 0.00 0.00 44 1020.9
20260503183940 79 284 3.0 8.0 0.00 0.00 0.00 45 1021.0
20260503183840 78 28 4.0 8.0 0.00 0.00 0.00 45 1021.0
20260503183750 78 96 4.0 8.0 0.00 0.00 0.00 45 1021.0
20260503183740 78 91 4.0 8.0 0.00 0.00 0.00 45 1021.0
20260503183640 78 113 3.0 8.0 0.00 0.00 0.00 45 1021.0
20260503183540 78 319 3.0 8.0 0.00 0.00 0.00 44 1021.1
20260503183440 78 66 4.0 8.0 0.00 0.00 0.00 44 1021.1
20260503183340 78 144 4.0 8.0 0.00 0.00 0.00 44 1021.1
20260503183251 78 91 4.0 8.0 0.00 0.00 0.00 43 1021.1
20260503183241 78 133 4.0 8.0 0.00 0.00 0.00 43 1021.1
20260503183138 78 102 3.0 8.0 0.00 0.00 0.00 43 1021.1
20260503183038 78 111 3.0 8.0 0.00 0.00 0.00 44 1021.1
20260503182934 78 87 3.0 8.0 0.00 0.00 0.00 44 1021.1
20260503182834 78 41 3.0 8.0 0.00 0.00 0.00 44 1021.1
20260503182751 78 334 4.0 9.0 0.00 0.00 0.00 44 1021.1
20260503182734 78 35 4.0 9.0 0.00 0.00 0.00 44 1021.1
20260503182634 78 126 4.0 9.0 0.00 0.00 0.00 45 1021.2
20260503182534 78 78 4.0 9.0 0.00 0.00 0.00 45 1021.2
20260503182428 78 63 4.0 9.0 0.00 0.00 0.00 45 1021.2
20260503182328 78 32 3.0 9.0 0.00 0.00 0.00 45 1021.2
20260503182251 78 63 3.0 9.0 0.00 0.00 0.00 43 1021.2
20260503182229 78 28 3.0 9.0 0.00 0.00 0.00 43 1021.2
20260503182125 79 43 3.0 9.0 0.00 0.00 0.00 42 1021.2
20260503182026 79 3 3.0 9.0 0.00 0.00 0.00 42 1021.2
20260503181925 79 54 3.0 9.0 0.00 0.00 0.00 42 1021.2
20260503181826 79 25 3.0 9.0 0.00 0.00 0.00 43 1021.2
20260503181751 79 46 3.0 9.0 0.00 0.00 0.00 43 1021.2
20260503181723 79 9 3.0 9.0 0.00 0.00 0.00 41 1021.3
20260503181620 79 21 3.0 9.0 0.00 0.00 0.00 41 1021.3
20260503181517 79 48 3.0 9.0 0.00 0.00 0.00 44 1021.4
20260503181509 79 46 3.0 9.0 0.00 0.00 0.00 42 1021.4
20260503181413 79 354 3.0 9.0 0.00 0.00 0.00 43 1021.4
20260503181351 79 7 3.0 9.0 0.00 0.00 0.00 42 1021.4
20260503181213 79 7 3.0 9.0 0.00 0.00 0.00 42 1021.4
20260503181113 79 58 2.0 7.0 0.00 0.00 0.00 42 1021.4
20260503181014 79 112 3.0 7.0 0.00 0.00 0.00 44 1021.4
20260503180910 79 44 2.0 7.0 0.00 0.00 0.00 42 1021.4
20260503180811 79 17 3.0 7.0 0.00 0.00 0.00 42 1021.4
20260503180745 79 37 3.0 7.0 0.00 0.00 0.00 42 1021.4
20260503180711 78 73 3.0 7.0 0.00 0.00 0.00 41 1021.4
20260503180610 78 101 3.0 6.0 0.00 0.00 0.00 44 1021.4
20260503180510 78 171 3.0 6.0 0.00 0.00 0.00 44 1021.4
20260503180410 78 301 3.0 6.0 0.00 0.00 0.00 41 1021.4
20260503180311 78 128 3.0 6.0 0.00 0.00 0.00 42 1021.4
20260503180246 78 6 3.0 6.0 0.00 0.00 0.00 42 1021.4
20260503180211 78 45 3.0 6.0 0.00 0.00 0.00 42 1021.4
20260503180111 78 49 3.0 6.0 0.00 0.00 0.00 41 1021.4
20260503180008 78 77 2.0 6.0 0.00 0.00 0.00 45 1021.4
20260503175908 78 38 2.0 6.0 0.00 0.00 0.00 44 1021.5
20260503175801 78 22 2.0 8.0 0.00 0.00 0.00 43 1021.5
20260503175745 78 66 3.0 8.0 0.00 0.00 0.00 43 1021.5
20260503175702 78 357 3.0 8.0 0.00 0.00 0.00 44 1021.5
20260503175602 78 32 3.0 8.0 0.00 0.00 0.00 44 1021.5
20260503175502 78 5 3.0 8.0 0.00 0.00 0.00 45 1021.5
20260503175401 78 23 3.0 8.0 0.00 0.00 0.00 45 1021.5
20260503175301 78 90 3.0 8.0 0.00 0.00 0.00 44 1021.5
20260503175245 78 95 3.0 8.0 0.00 0.00 0.00 44 1021.5
20260503175158 78 46 3.0 8.0 0.00 0.00 0.00 43 1021.6
20260503175055 78 46 3.0 8.0 0.00 0.00 0.00 43 1021.6
20260503174952 78 10 3.0 8.0 0.00 0.00 0.00 43 1021.6
20260503174849 79 65 3.0 8.0 0.00 0.00 0.00 43 1021.6
20260503174750 79 5 2.0 8.0 0.00 0.00 0.00 44 1021.7
20260503174742 79 27 2.0 7.0 0.00 0.00 0.00 44 1021.7
20260503174647 79 46 2.0 7.0 0.00 0.00 0.00 44 1021.7
20260503174547 79 306 2.0 5.0 0.00 0.00 0.00 43 1021.7
20260503174444 79 252 2.0 5.0 0.00 0.00 0.00 41 1021.7
20260503174344 79 1 2.0 5.0 0.00 0.00 0.00 41 1021.7
20260503174244 79 162 2.0 5.0 0.00 0.00 0.00 42 1021.7
20260503174141 79 49 2.0 5.0 0.00 0.00 0.00 44 1021.8
20260503174038 78 36 3.0 6.0 0.00 0.00 0.00 45 1021.8
20260503173938 78 137 3.0 6.0 0.00 0.00 0.00 44 1021.8
20260503173835 78 83 3.0 7.0 0.00 0.00 0.00 44 1021.8
20260503173739 78 248 3.0 7.0 0.00 0.00 0.00 44 1021.8
20260503173735 78 298 3.0 7.0 0.00 0.00 0.00 44 1021.8
20260503173635 78 1 4.0 8.0 0.00 0.00 0.00 44 1021.8
20260503173529 78 30 4.0 8.0 0.00 0.00 0.00 42 1021.9
20260503173429 78 46 4.0 11.0 0.00 0.00 0.00 42 1021.9
20260503173329 78 48 4.0 11.0 0.00 0.00 0.00 43 1021.9
20260503173237 78 58 4.0 11.0 0.00 0.00 0.00 43 1021.9
20260503173227 78 63 4.0 11.0 0.00 0.00 0.00 43 1021.9
20260503173126 78 69 4.0 11.0 0.00 0.00 0.00 43 1021.9
20260503173026 78 250 3.0 11.0 0.00 0.00 0.00 43 1022.0
20260503172926 78 84 3.0 11.0 0.00 0.00 0.00 42 1022.0
20260503172827 78 296 3.0 11.0 0.00 0.00 0.00 41 1022.0
20260503172737 78 50 3.0 11.0 0.00 0.00 0.00 41 1022.0
20260503172727 79 21 3.0 11.0 0.00 0.00 0.00 44 1022.0
20260503172627 79 54 3.0 11.0 0.00 0.00 0.00 43 1022.0
20260503172531 78 14 2.0 11.0 0.00 0.00 0.00 47 1022.1
20260503172455 78 337 2.0 6.0 0.00 0.00 0.00 47 1022.0
20260503172427 78 0 2.0 6.0 0.00 0.00 0.00 48 1022.1
20260503172342 78 343 2.0 6.0 0.00 0.00 0.00 47 1022.0
20260503172226 78 324 2.0 6.0 0.00 0.00 0.00 46 1022.1
20260503172126 78 8 2.0 6.0 0.00 0.00 0.00 44 1022.1
20260503172027 78 347 2.0 6.0 0.00 0.00 0.00 44 1022.1
20260503171926 78 290 3.0 7.0 0.00 0.00 0.00 44 1022.1
20260503171823 78 20 3.0 7.0 0.00 0.00 0.00 44 1022.1
20260503171737 78 312 3.0 7.0 0.00 0.00 0.00 44 1022.1
20260503171723 78 20 3.0 7.0 0.00 0.00 0.00 44 1022.1
20260503171620 78 37 3.0 7.0 0.00 0.00 0.00 45 1022.1
20260503171520 78 94 3.0 7.0 0.00 0.00 0.00 44 1022.1
20260503171420 78 331 3.0 7.0 0.00 0.00 0.00 46 1022.1
20260503171320 78 114 3.0 7.0 0.00 0.00 0.00 46 1022.1
20260503171234 78 42 3.0 7.0 0.00 0.00 0.00 46 1022.1
20260503171221 78 22 3.0 7.0 0.00 0.00 0.00 44 1022.1
20260503171121 78 54 3.0 7.0 0.00 0.00 0.00 44 1022.2
20260503171021 78 110 3.0 7.0 0.00 0.00 0.00 42 1022.1
20260503170921 78 102 3.0 7.0 0.00 0.00 0.00 45 1022.1
20260503170820 78 77 3.0 6.0 0.00 0.00 0.00 45 1022.1
20260503170734 78 18 2.0 6.0 0.00 0.00 0.00 45 1022.1
20260503170717 78 50 2.0 7.0 0.00 0.00 0.00 45 1022.1
20260503170617 78 109 3.0 7.0 0.00 0.00 0.00 46 1022.1
20260503170517 78 356 3.0 7.0 0.00 0.00 0.00 48 1022.1
20260503170414 78 47 2.0 7.0 0.00 0.00 0.00 46 1022.1
20260503170315 78 359 2.0 7.0 0.00 0.00 0.00 45 1022.2
20260503170234 78 327 2.0 7.0 0.00 0.00 0.00 45 1022.2
20260503170215 78 356 2.0 7.0 0.00 0.00 0.00 45 1022.2
20260503170112 78 340 2.0 7.0 0.00 0.00 0.00 45 1022.2
20260503160215 77 124 3.0 7.0 0.00 0.00 0.00 50 1022.4
20260503160116 77 91 3.0 7.0 0.00 0.00 0.00 49 1022.3